Location: Alafon
(8.4500°N, 4.2333°E)
Time: 22:33:38
(UTC+00:00)

Explorer 7 - Pass Details

Date: 01 August 2021
Orbit: 484 x 676 km, 50.3° (Epoch: 18 September)

Event Time Altitude Azimuth Distance (km) Brightness Sun altitude
Rises 12:03:24 0° 343° (NNW) 2,863 10.6 80.0°
Reaches altitude 10° 12:06:01 10° 357° (N) 1,993 10.0 79.7°
Maximum altitude 12:09:45 24° 51° (NE) 1,332 9.2 79.4°
Drops below altitude 10° 12:13:36 10° 105° (ESE) 2,069 9.8 78.9°
Sets 12:16:21 0° 118° (ESE) 3,000 10.5 78.5°
